| time (UTC) | temp C | wind direction | speed KPH | gust KPH | rain 1hr cm | rain 24hr cm | rain mn cm | humidity % | barometer mb |
| 20260510233112 | 26 | 134 | 4.8 | 6.4 | 0.00 | 0.00 | 0.00 | 36 | 1014.6 |
| 20260510231556 | 26 | 131 | 1.6 | 8.0 | 0.00 | 0.00 | 0.00 | 34 | 1014.5 |
| 20260510230055 | 27 | 134 | 3.2 | 6.4 | 0.00 | 0.00 | 0.00 | 32 | 1014.5 |
| 20260510224556 | 27 | 203 | 1.6 | 8.0 | 0.00 | 0.00 | 0.00 | 31 | 1014.4 |
| 20260510223106 | 28 | 136 | 4.8 | 8.0 | 0.00 | 0.00 | 0.00 | 30 | 1014.3 |
| 20260510221600 | 28 | 128 | 3.2 | 6.4 | 0.00 | 0.00 | 0.00 | 29 | 1014.3 |
| 20260510214601 | 28 | 236 | 6.4 | 12.9 | 0.00 | 0.00 | 0.00 | 28 | 1014.3 |
| 20260510213100 | 28 | 236 | 4.8 | 9.7 | 0.00 | 0.00 | 0.00 | 28 | 1014.2 |
| 20260510211554 | 28 | 337 | 3.2 | 11.3 | 0.00 | 0.00 | 0.00 | 27 | 1014.1 |
| 20260510210056 | 28 | 255 | 6.4 | 14.5 | 0.00 | 0.00 | 0.00 | 26 | 1014.2 |
| 20260510204601 | 28 | 229 | 4.8 | 16.1 | 0.00 | 0.00 | 0.00 | 28 | 1014.3 |
| 20260510203055 | 27 | 141 | 8.0 | 17.7 | 0.00 | 0.00 | 0.00 | 27 | 1014.4 |
| 20260510201602 | 27 | 92 | 6.4 | 17.7 | 0.00 | 0.00 | 0.00 | 25 | 1014.4 |
| 20260510200057 | 27 | 119 | 4.8 | 16.1 | 0.00 | 0.00 | 0.00 | 27 | 1014.6 |
| 20260510194559 | 27 | 110 | 9.7 | 19.3 | 0.00 | 0.00 | 0.00 | 25 | 1014.8 |
| 20260510193054 | 27 | 288 | 4.8 | 16.1 | 0.00 | 0.00 | 0.00 | 27 | 1015.1 |
| 20260510191558 | 27 | 205 | 4.8 | 17.7 | 0.00 | 0.00 | 0.00 | 27 | 1015.2 |
| 20260510190054 | 27 | 129 | 9.7 | 17.7 | 0.00 | 0.00 | 0.00 | 29 | 1015.2 |
| 20260510184603 | 27 | 124 | 8.0 | 19.3 | 0.00 | 0.00 | 0.00 | 28 | 1015.2 |
| 20260510183056 | 27 | 238 | 4.8 | 14.5 | 0.00 | 0.00 | 0.00 | 26 | 1015.3 |
| 20260510181608 | 26 | 153 | 4.8 | 12.9 | 0.00 | 0.00 | 0.00 | 28 | 1015.4 |
| 20260510180107 | 26 | 224 | 8.0 | 12.9 | 0.00 | 0.00 | 0.00 | 26 | 1015.7 |
| 20260510174559 | 26 | 206 | 6.4 | 14.5 | 0.00 | 0.00 | 0.00 | 27 | 1015.6 |
| 20260510173102 | 26 | 136 | 11.3 | 19.3 | 0.00 | 0.00 | 0.00 | 29 | 1016.0 |
| 20260510171603 | 26 | 264 | 3.2 | 11.3 | 0.00 | 0.00 | 0.00 | 28 | 1016.2 |
| 20260510170058 | 26 | 207 | 3.2 | 14.5 | 0.00 | 0.00 | 0.00 | 30 | 1016.3 |
| 20260510164602 | 26 | 108 | 6.4 | 16.1 | 0.00 | 0.00 | 0.00 | 30 | 1016.1 |
| 20260510163100 | 26 | 266 | 8.0 | 11.3 | 0.00 | 0.00 | 0.00 | 30 | 1016.2 |
| 20260510161605 | 26 | 105 | 3.2 | 11.3 | 0.00 | 0.00 | 0.00 | 28 | 1016.4 |
| 20260510160059 | 25 | 237 | 4.8 | 8.0 | 0.00 | 0.00 | 0.00 | 31 | 1016.7 |
| 20260510154605 | 24 | 97 | 3.2 | 9.7 | 0.00 | 0.00 | 0.00 | 33 | 1016.5 |
| 20260510153103 | 24 | 331 | 4.8 | 11.3 | 0.00 | 0.00 | 0.00 | 34 | 1016.6 |
| 20260510151559 | 23 | 326 | 6.4 | 9.7 | 0.00 | 0.00 | 0.00 | 36 | 1016.6 |
| 20260510150123 | 23 | 298 | 6.4 | 22.5 | 0.00 | 0.00 | 0.00 | 36 | 1016.9 |
| 20260510144554 | 23 | 326 | 4.8 | 14.5 | 0.00 | 0.00 | 0.00 | 37 | 1016.8 |
| 20260510143103 | 22 | 7 | 4.8 | 11.3 | 0.00 | 0.00 | 0.00 | 40 | 1016.7 |
| 20260510141555 | 22 | 94 | 1.6 | 11.3 | 0.00 | 0.00 | 0.00 | 41 | 1016.6 |
| 20260510140057 | 21 | 231 | 1.6 | 6.4 | 0.00 | 0.00 | 0.00 | 48 | 1016.7 |
| 20260510134556 | 21 | 235 | 1.6 | 4.8 | 0.00 | 0.00 | 0.00 | 52 | 1016.7 |
| 20260510133056 | 20 | 93 | 0.0 | 4.8 | 0.00 | 0.00 | 0.00 | 55 | 1016.6 |
| 20260510131554 | 20 | 121 | 0.0 | 4.8 | 0.00 | 0.00 | 0.00 | 57 | 1016.6 |
| 20260510130054 | 18 | 0 | 0.0 | 3.2 | 0.00 | 0.00 | 0.00 | 60 | 1016.4 |
| 20260510124603 | 18 | 0 | 0.0 | 3.2 | 0.00 | 0.00 | 0.00 | 67 | 1016.3 |
| 20260510123059 | 16 | 116 | 0.0 | 1.6 | 0.00 | 0.00 | 0.00 | 85 | 1016.3 |
| 20260510121554 | 15 | 127 | 0.0 | 3.2 | 0.00 | 0.00 | 0.00 | 87 | 1016.0 |
| 20260510120054 | 14 | 110 | 0.0 | 1.6 | 0.00 | 0.00 | 0.00 | 86 | 1015.7 |
| 20260510114556 | 13 | 0 | 0.0 | 1.6 | 0.00 | 0.00 | 0.00 | 91 | 1015.5 |
| 20260510113052 | 11 | 0 | 1.6 | 6.4 | 0.00 | 0.00 | 0.00 | 92 | 1015.1 |
| 20260510111604 | 11 | 309 | 1.6 | 4.8 | 0.00 | 0.00 | 0.00 | 93 | 1014.9 |
| 20260510110055 | 10 | 0 | 0.0 | 1.6 | 0.00 | 0.00 | 0.00 | 94 | 1014.7 |
| 20260510104557 | 10 | 0 | 0.0 | 3.2 | 0.00 | 0.00 | 0.00 | 94 | 1014.5 |
| 20260510103103 | 10 | 0 | 0.0 | 1.6 | 0.00 | 0.00 | 0.00 | 95 | 1014.3 |
| 20260510101559 | 10 | 0 | 0.0 | 1.6 | 0.00 | 0.00 | 0.00 | 95 | 1014.1 |
| 20260510100055 | 10 | 0 | 0.0 | 1.6 | 0.00 | 0.00 | 0.00 | 94 | 1013.9 |
| 20260510094607 | 10 | 0 | 0.0 | 3.2 | 0.00 | 0.00 | 0.00 | 94 | 1013.8 |
| 20260510093114 | 10 | 320 | 0.0 | 1.6 | 0.00 | 0.00 | 0.00 | 94 | 1013.6 |
| 20260510091554 | 11 | 0 | 0.0 | 1.6 | 0.00 | 0.00 | 0.00 | 94 | 1013.6 |
| 20260510090058 | 11 | 124 | 0.0 | 3.2 | 0.00 | 0.00 | 0.00 | 93 | 1013.5 |
| 20260510084554 | 11 | 0 | 0.0 | 4.8 | 0.00 | 0.00 | 0.00 | 94 | 1013.3 |
| 20260510083106 | 11 | 272 | 1.6 | 3.2 | 0.00 | 0.00 | 0.00 | 94 | 1013.2 |
| 20260510081554 | 12 | 0 | 0.0 | 1.6 | 0.00 | 0.00 | 0.00 | 94 | 1013.1 |
| 20260510080058 | 12 | 86 | 1.6 | 4.8 | 0.00 | 0.00 | 0.00 | 93 | 1012.7 |
| 20260510074559 | 12 | 281 | 1.6 | 4.8 | 0.00 | 0.00 | 0.00 | 94 | 1012.4 |
| 20260510073056 | 12 | 15 | 0.0 | 1.6 | 0.00 | 0.00 | 0.00 | 94 | 1012.5 |
| 20260510071555 | 12 | 0 | 0.0 | 1.6 | 0.00 | 0.00 | 0.00 | 94 | 1012.4 |
| 20260510070058 | 13 | 0 | 1.6 | 4.8 | 0.00 | 0.00 | 0.00 | 93 | 1012.3 |
| 20260510064604 | 13 | 0 | 0.0 | 0.0 | 0.00 | 0.00 | 0.00 | 94 | 1012.4 |
| 20260510063056 | 13 | 0 | 0.0 | 1.6 | 0.00 | 0.00 | 0.00 | 94 | 1012.3 |
| 20260510061559 | 13 | 0 | 0.0 | 1.6 | 0.00 | 0.00 | 0.00 | 93 | 1012.5 |
| 20260510060055 | 13 | 317 | 0.0 | 3.2 | 0.00 | 0.00 | 0.00 | 93 | 1012.7 |
| 20260510054556 | 13 | 4 | 0.0 | 0.0 | 0.00 | 0.00 | 0.00 | 93 | 1012.8 |
| 20260510053059 | 14 | 0 | 0.0 | 1.6 | 0.00 | 0.00 | 0.00 | 92 | 1012.7 |
| 20260510051602 | 15 | 322 | 3.2 | 4.8 | 0.00 | 0.00 | 0.00 | 93 | 1012.8 |
| 20260510050059 | 14 | 0 | 0.0 | 1.6 | 0.00 | 0.00 | 0.00 | 93 | 1013.0 |
| 20260510044610 | 14 | 0 | 0.0 | 1.6 | 0.00 | 0.00 | 0.00 | 92 | 1012.9 |
| 20260510043057 | 15 | 0 | 0.0 | 1.6 | 0.00 | 0.00 | 0.00 | 92 | 1012.8 |
| 20260510041554 | 15 | 0 | 0.0 | 1.6 | 0.00 | 0.00 | 0.00 | 91 | 1012.8 |
| 20260510040057 | 15 | 284 | 0.0 | 3.2 | 0.00 | 0.00 | 0.00 | 90 | 1013.0 |
| 20260510034554 | 16 | 0 | 0.0 | 1.6 | 0.00 | 0.00 | 0.00 | 90 | 1012.9 |
| 20260510033102 | 16 | 0 | 0.0 | 0.0 | 0.00 | 0.00 | 0.00 | 89 | 1012.9 |
| 20260510031557 | 16 | 0 | 0.0 | 3.2 | 0.00 | 0.00 | 0.00 | 88 | 1013.0 |
| 20260510030107 | 16 | 0 | 1.6 | 3.2 | 0.00 | 0.00 | 0.00 | 88 | 1013.0 |
| 20260510024558 | 16 | 0 | 0.0 | 1.6 | 0.00 | 0.00 | 0.00 | 87 | 1013.0 |
| 20260510023055 | 17 | 0 | 0.0 | 1.6 | 0.00 | 0.00 | 0.00 | 85 | 1012.7 |
| 20260510021601 | 17 | 320 | 0.0 | 3.2 | 0.00 | 0.00 | 0.00 | 83 | 1012.5 |
| 20260510020056 | 18 | 217 | 0.0 | 1.6 | 0.00 | 0.00 | 0.00 | 82 | 1012.4 |
| 20260510014600 | 18 | 139 | 0.0 | 1.6 | 0.00 | 0.00 | 0.00 | 80 | 1012.2 |
| 20260510013055 | 19 | 0 | 0.0 | 1.6 | 0.00 | 0.00 | 0.00 | 79 | 1012.0 |
| 20260510011558 | 19 | 0 | 0.0 | 1.6 | 0.00 | 0.00 | 0.00 | 78 | 1011.9 |
| 20260510010055 | 19 | 130 | 0.0 | 4.8 | 0.00 | 0.00 | 0.00 | 77 | 1011.5 |
| 20260510004557 | 19 | 0 | 0.0 | 1.6 | 0.00 | 0.00 | 0.00 | 77 | 1011.3 |
| 20260510003057 | 19 | 0 | 0.0 | 1.6 | 0.00 | 0.00 | 0.00 | 77 | 1011.0 |
| 20260510001556 | 20 | 134 | 0.0 | 4.8 | 0.00 | 0.00 | 0.00 | 74 | 1010.7 |
| 20260510000054 | 20 | 213 | 0.0 | 4.8 | 0.00 | 0.00 | 0.00 | 72 | 1010.6 |
| 20260509234556 | 21 | 240 | 0.0 | 3.2 | 0.00 | 0.00 | 0.00 | 70 | 1010.5 |